Location: Rockford
(42.2710°N, 89.0940°W)
Time: 20:18:36
(UTC-05:00)

Daily predictions for brighter satellites

Satellite Brightness Start Highest point End
(mag) Time Altitude Azimuth Time Altitude Azimuth Time Altitude Azimuth
Cosmos 1624 Rocket 4.3 20:49:15 10° NNW 20:54:28 55° ENE 20:59:40 10° SE
SL-27 R/B 3.2 20:52:16 10° SSW 20:55:52 62° WNW 20:59:29 10° NNE
Meteor 2-4 Rocket 3.8 20:50:57 10° S 20:56:38 78° E 21:02:30 10° NNE
Cosmos 1437 Rocket 3.4 20:53:21 10° N 20:56:59 38° ENE 21:00:39 10° SE
USA 186 3.2 20:59:57 10° SSW 21:02:52 35° W 21:05:42 10° NNW
Cosmos 1980 Rocket 4.1 21:01:39 10° N 21:05:23 18° NE 21:09:05 10° E
Cosmos 1939 Rocket 2.8 21:02:06 10° SSE 21:05:57 85° ENE 21:09:51 10° N
ARGOS 4.3 21:02:32 10° ESE 21:07:05 28° ENE 21:11:38 10° N
CZ-4B DEB 2.5 21:05:38 10° SSE 21:08:37 85° ENE 21:11:37 10° N
H-2A R/B 3.7 21:07:32 10° ESE 21:10:53 18° ENE 21:14:18 10° NNE
Envisat 3.4 21:09:09 10° S 21:14:11 67° WSW 21:19:16 10° NNW
Cosmos 2058 Rocket 4.0 21:10:17 10° NNE 21:14:16 32° ENE 21:18:01 11° SE
Cosmos 2056 Rocket 3.5 21:09:12 10° NNW 21:14:22 77° ENE 21:19:28 10° SSE
SPOT 5 3.8 21:16:39 11° SE 21:20:07 28° ENE 21:23:54 10° N
Cosmos 1441 Rocket 4.1 21:16:38 10° SSW 21:20:15 49° WNW 21:23:55 10° N
SAR-Lupe-4 4.3 21:22:05 10° S 21:25:35 52° W 21:29:07 10° NNW
NOAA 11 4.4 21:21:15 10° SSE 21:26:29 56° ENE 21:31:47 10° N
Cosmos 839 Rocket 4.4 21:21:04 10° NNW 21:27:41 82° ENE 21:35:04 13° SE
CZ-3A R/B 0.2 21:26:54 10° SW 21:30:58 57° SE 21:32:38 10° ENE
Meteor 1-4 Rocket 4.0 21:28:21 10° NNE 21:31:12 22° ENE 21:33:02 15° ESE
H-2A R/B 4.4 21:29:23 10° E 21:31:18 13° ENE 21:33:12 10° NE
Cosmos 2181 Rocket 4.2 21:26:54 10° S 21:33:05 57° E 21:39:13 10° NNE
NOSS 8 (H) 4.4 21:30:44 10° SSW 21:34:04 60° ESE 21:37:34 10° NE
Helios 1A 4.3 21:30:14 10° SSW 21:34:10 38° W 21:38:06 10° NNW
ISS -1.2 21:31:47 10° WNW 21:34:28 23° NNW 21:37:11 10° NE
YAOGAN 6 2.8 21:31:18 10° S 21:34:45 66° WSW 21:38:16 10° NNW
Meteor 2-19 Rocket 4.4 21:31:32 10° N 21:37:42 81° E 21:43:51 10° S
Resurs 01 Rocket 4.3 21:36:30 10° SW 21:38:56 15° W 21:41:24 10° WNW
Helios 1B rocket 4.1 21:40:07 10° N 21:43:56 37° WNW 21:47:44 10° SW
COSMOS 2487 2.4 21:40:27 10° SSW 21:44:01 89° ESE 21:47:36 10° NNE
Cosmos 2082 Rocket 2.2 21:39:09 10° S 21:44:43 62° ESE 21:50:18 10° NNE
TELKOM 3 3.1 21:42:56 10° WNW 21:45:13 80° SSW 21:46:40 25° SE
Cosmos 921 Rocket 3.1 21:41:16 10° NNW 21:45:45 77° WSW 21:49:20 15° S
Cosmos 1452 Rocket 3.7 21:40:50 10° NNW 21:46:04 61° ENE 21:49:50 19° SE
Cosmos 2228 3.1 21:41:52 10° N 21:46:06 59° E 21:49:02 19° SSE
ERS-1 Rocket 3.1 21:41:26 11° S 21:46:18 79° WSW 21:51:22 10° NNW
Cosmos 2278 3.8 21:41:47 10° NNW 21:47:31 79° WSW 21:52:11 16° SSE
Cosmos 962 Rocket 4.5 21:41:38 10° N 21:47:53 88° W 21:53:54 11° S
Lacrosse 5 rocket 3.9 21:46:04 10° NNW 21:49:17 18° NNE 21:52:30 10° ENE
Cosmos 1656 3.6 21:49:19 10° NNW 21:54:48 85° ENE 21:58:44 20° SSE
ASTEX 1 4.5 21:54:48 10° SSW 21:59:27 43° W 22:04:07 10° NNW
Cosmos 1697 Rocket 2.8 21:54:48 10° NNW 22:00:25 68° ENE 22:04:02 22° SE
SPOT 1/Viking Rocket 3.7 21:59:04 21° SE 22:02:23 58° ENE 22:07:26 10° N
SL-8 Rocket 4.0 21:58:23 10° N 22:04:41 77° E 22:09:24 19° SSE
MetOp-A 4.3 22:01:41 15° S 22:06:10 71° WSW 22:11:32 10° NNW
Cosmos 2369 4.3 22:02:53 10° NNW 22:08:28 54° WSW 22:12:47 17° S
Meteor 1-22 Rocket 4.3 22:03:26 10° N 22:08:40 55° ENE 22:11:43 25° SE
Iridium 43 3.5 22:07:24 10° N 22:09:39 72° W 22:10:03 54° SSW
USA 229 DEB 4.1 22:04:22 10° NNW 22:11:26 60° NE 22:16:22 21° ESE
Cosmos 1892 Rocket 4.4 22:07:11 10° SSW 22:11:28 49° W 22:15:46 10° N
USA 229 4.1 22:04:28 10° NNW 22:11:32 59° NE 22:16:28 21° ESE
SL-16 R/B 3.9 22:07:43 10° N 22:11:57 21° NE 22:15:34 12° E
Cosmos 2366 rocket 4.0 22:06:03 10° N 22:12:11 65° E 22:16:01 24° SSE
Tiangong 2 0.9 22:10:18 10° W 22:13:30 85° S 22:14:31 40° ESE
Cosmos 468 4.4 22:09:22 10° S 22:14:33 73° ESE 22:19:52 10° NNE
Cosmos 1833 Rocket 2.7 22:09:46 10° SSW 22:15:23 82° WNW 22:21:04 10° NNE
Cosmos 1602 Rocket 3.6 22:14:05 27° SSE 22:16:14 60° E 22:20:29 10° NNE
Cosmos 158 Rocket 4.2 22:15:00 22° S 22:18:10 51° ESE 22:23:24 10° NNE
Landsat 7 3.9 22:23:13 31° SE 22:25:23 63° ENE 22:30:06 10° N
Cosmos 1544 4.1 22:22:40 10° NNE 22:25:55 30° ENE 22:26:22 29° E
Cosmos 1271 Rocket 3.3 22:23:56 10° N 22:27:41 43° ENE 22:28:35 36° ESE
Cosmos 1842 3.8 22:28:44 37° ESE 22:29:17 40° E 22:32:59 10° NNE
Meteor 2-14 Rocket 4.4 22:23:29 10° N 22:29:33 69° E 22:32:44 29° SSE
CZ-4B R/B 4.5 22:29:12 10° NE 22:33:38 29° E 22:34:27 27° ESE
deb Chang Zheng 4 4.2 22:29:57 10° NNE 22:33:58 37° E 22:34:29 35° ESE
Cosmos 1809 Rocket 4.5 22:30:06 10° N 22:36:12 78° W 22:39:56 25° S
Terra 1.9 22:38:44 38° SE 22:40:25 62° ENE 22:45:08 10° N
IGS 5A 3.7 22:39:46 43° SE 22:40:48 57° ENE 22:44:53 10° N
ATLAS CENTAUR R/B 2.8 22:38:23 10° N 22:41:24 23° NE 22:42:28 20° ENE
SL-19 R/B 4.3 22:36:50 10° NNE 22:41:59 51° E 22:43:40 37° SSE
CARTOSAT-1 3.6 22:40:58 43° SE 22:42:11 64° ENE 22:46:28 10° N
ARGOS 4.2 22:43:32 18° SSW 22:47:07 40° W 22:52:14 10° NNW
Cosmos 2360 Rocket 4.3 22:44:35 10° N 22:48:16 17° NE 22:51:48 10° E
H-2A R/B 2.4 22:47:25 29° SSW 22:49:49 57° W 22:54:50 10° NNW
Cosmos 1980 Rocket 2.1 22:44:25 10° NNW 22:50:06 82° WSW 22:52:22 38° SSE
Meteor 2-16 Rocket 4.4 22:46:40 10° N 22:52:51 89° WSW 22:55:44 34° S
Timation 2 Rocket 4.3 22:49:57 10° SW 22:56:16 67° WNW 23:02:23 10° NNE
SPOT 5 4.3 22:55:53 17° SW 22:58:11 26° W 23:01:52 10° NW
Cosmos 2322 Rocket 2.8 22:57:10 10° NNW 23:02:41 47° ENE 23:04:45 33° ESE
Cosmos 1758 Rocket 3.9 23:04:46 47° E 23:04:55 47° E 23:09:07 10° NNE
H-2A R/B 2.2 23:05:36 51° S 23:06:41 75° WSW 23:11:13 10° NNW
Cosmos 1953 2.4 23:02:54 10° N 23:06:58 61° E 23:07:12 59° E
Cosmos 1766 4.1 23:05:04 10° NNW 23:08:46 42° W 23:09:33 36° SW
Spot 4 3.9 23:08:32 50° SE 23:09:34 64° ENE 23:14:21 10° N
Cosmos 1812 Rocket 4.3 23:05:21 10° NNW 23:09:39 47° W 23:10:59 35° SW
ISS -0.8 23:09:40 10° NW 23:11:50 16° N 23:13:59 10° NE
Lacrosse 5 1.9 23:12:01 54° SE 23:12:16 55° SE 23:17:13 10° NE
Cosmos 972 Rocket 4.1 23:10:13 10° N 23:15:18 59° ENE 23:16:17 49° ESE
CZ-2C R/B 4.2 23:11:33 10° NE 23:15:42 21° E 23:15:50 21° E
Cosmos 1331 Rocket 4.0 23:11:06 10° NNW 23:16:16 66° ENE 23:17:24 51° SE
Cosmos 1110 Rocket 3.9 23:15:56 10° NNW 23:21:13 84° ENE 23:22:19 56° SSE
Nadezhda 3 Rocket 4.1 23:19:34 34° SSW 23:22:34 78° W 23:28:57 10° N
Cosmos 389 Rocket 2.8 23:19:49 10° NNW 23:22:49 63° NNW 23:22:49 63° NNW
Cosmos 1470 3.2 23:19:35 10° N 23:23:19 49° ENE 23:23:19 49° ENE
Cosmos 2239 Rocket 4.4 23:18:26 10° N 23:24:39 79° E 23:26:35 47° SSE
USA 267 3.9 23:20:05 10° ENE 23:25:20 33° ESE 23:25:20 33° ESE
Cosmos 1707 3.9 23:27:46 33° ENE 23:27:46 33° ENE 23:30:33 10° NNE
Cosmos 2082 Rocket 4.5 23:24:53 10° WSW 23:29:15 22° NW 23:33:37 10° N
Lacrosse 5 rocket 2.0 23:24:48 10° NW 23:29:24 59° NE 23:30:18 49° E
SeaSat 1 4.3 23:27:30 17° E 23:29:43 23° NE 23:33:31 10° N
Cosmos 1825 Rocket 3.8 23:31:02 51° WSW 23:31:44 59° W 23:36:01 10° N
Cosmos 1953 Rocket 3.5 23:31:48 72° SSW 23:32:13 84° W 23:36:42 10° N
NOSS 3-1 (C) 4.0 23:27:03 10° NW 23:34:42 89° ENE 23:38:12 40° SE
Cosmos 1821 Rocket 4.0 23:28:52 10° N 23:35:12 88° W 23:37:10 48° S
Cosmos 1805 4.2 23:32:10 10° NNW 23:35:48 37° W 23:35:58 37° W
ALOS 2 3.6 23:48:43 35° ENE 23:48:54 35° ENE 23:52:54 10° N
Cosmos 2084 Rocket 4.3 23:51:11 38° NE 23:51:11 38° NE 23:53:45 10° NE
CZ-2C R/B 3.8 23:48:57 40° ESE 23:50:12 46° ENE 23:55:38 10° N
Cosmos-2242 2.9 23:46:09 10° N 23:50:17 81° NNE 23:50:17 81° NNE
Cosmos 1727 Rocket 4.2 23:50:54 46° SE 23:52:01 52° E 23:58:03 10° NNE
